When you browse on this site, cookies collect data to enhance your experience and personalize the content and advertising you see.
Visit our Privacy Policy to learn more. By continuing to use the site, you agree to this use of cookies and data.
  • In Hungary
  • List of Countries
  • For 7 days
  • Water Temperature
  • Weather Map
  • News
  • Weather Widgets
  • user-avatar
    Login

    Hourly Weather Syvukhy

    Today, 8 April, Wednesday

    Time Temperature Precipitation Wind Pressure Humidity
    00:00 +7°C° 0 mm 4 mps 763 mmHg 53%
    01:00 +7°C° 0 mm 4 mps 762 mmHg 54%
    02:00 +6°C° 0 mm 4 mps 762 mmHg 55%
    03:00 +6°C° 0 mm 4 mps 761 mmHg 55%
    04:00 +6°C° 0 mm 4 mps 761 mmHg 55%
    05:00 +6°C° 0 mm 4 mps 760 mmHg 55%
    06:00 +7°C° 0 mm 5 mps 760 mmHg 53%
    07:00 +8°C° 0 mm 5 mps 760 mmHg 50%
    08:00 +9°C° 0 mm 6 mps 759 mmHg 48%
    09:00 +11°C° 0 mm 6 mps 759 mmHg 48%
    10:00 +13°C° 0 mm 6 mps 759 mmHg 48%
    11:00 +15°C° 0 mm 6 mps 759 mmHg 48%
    12:00 +15°C° 0 mm 6 mps 758 mmHg 46%
    13:00 +16°C° 0 mm 6 mps 758 mmHg 43%
    14:00 +16°C° 0 mm 6 mps 758 mmHg 40%
    15:00 +15°C° 0 mm 6 mps 758 mmHg 45%
    16:00 +15°C° 0 mm 6 mps 758 mmHg 49%
    17:00 +14°C° 0 mm 5 mps 757 mmHg 53%
    18:00 +12°C° 0 mm 4 mps 758 mmHg 58%
    19:00 +11°C° 0 mm 3 mps 758 mmHg 63%
    20:00 +9°C° 0 mm 2 mps 758 mmHg 68%
    21:00 +8°C° 0 mm 2 mps 758 mmHg 71%
    22:00 +9°C° 0 mm 1 mps 758 mmHg 73%
    23:00 +8°C° 0 mm 1 mps 758 mmHg 75%

    Tomorrow, 9 April, Thursday

    Time Temperature Precipitation Wind Pressure Humidity
    00:00 +8°C° 0 mm 1 mps 758 mmHg 77%
    01:00 +7°C° 0 mm 1 mps 758 mmHg 78%
    02:00 +6°C° 0 mm 0 mps 758 mmHg 79%
    03:00 +6°C° 0 mm 0 mps 757 mmHg 80%
    04:00 +5°C° 0 mm 0 mps 757 mmHg 82%
    05:00 +5°C° 0 mm 0 mps 757 mmHg 83%
    06:00 +7°C° 0 mm 1 mps 757 mmHg 77%
    07:00 +9°C° 0 mm 1 mps 757 mmHg 71%
    08:00 +10°C° 0 mm 1 mps 756 mmHg 66%
    09:00 +12°C° 0 mm 2 mps 756 mmHg 59%
    10:00 +13°C° 0 mm 2 mps 756 mmHg 52%
    11:00 +14°C° 0 mm 2 mps 755 mmHg 45%
    12:00 +14°C° 0 mm 3 mps 755 mmHg 42%
    13:00 +16°C° 0 mm 3 mps 754 mmHg 38%
    14:00 +17°C° 0 mm 3 mps 753 mmHg 35%
    15:00 +17°C° 0 mm 3 mps 753 mmHg 36%
    16:00 +17°C° 0 mm 3 mps 752 mmHg 38%
    17:00 +17°C° 0 mm 3 mps 752 mmHg 39%
    18:00 +16°C° 0 mm 3 mps 751 mmHg 43%
    19:00 +13°C° 0 mm 3 mps 751 mmHg 48%
    20:00 +12°C° 0 mm 3 mps 751 mmHg 52%
    21:00 +12°C° 0 mm 3 mps 750 mmHg 53%
    22:00 +12°C° 0 mm 3 mps 750 mmHg 53%
    23:00 +12°C° 0 mm 4 mps 750 mmHg 54%

    Day after tomorrow, 10 April, Friday

    Time Temperature Precipitation Wind Pressure Humidity
    00:00 +11°C° 0 mm 3 mps 749 mmHg 58%
    01:00 +10°C° 0 mm 3 mps 749 mmHg 63%
    02:00 +10°C° 0 mm 3 mps 749 mmHg 68%
    03:00 +9°C° 0 mm 3 mps 748 mmHg 73%
    04:00 +9°C° 0 mm 3 mps 748 mmHg 78%
    05:00 +9°C° 0 mm 3 mps 748 mmHg 83%
    06:00 +8°C° 0.3 mm 4 mps 748 mmHg 82%
    07:00 +8°C° 0.3 mm 5 mps 748 mmHg 81%
    08:00 +8°C° 0.3 mm 6 mps 749 mmHg 81%
    09:00 +8°C° 0.1 mm 6 mps 749 mmHg 72%
    10:00 +8°C° 0.1 mm 7 mps 750 mmHg 63%
    11:00 +9°C° 0.1 mm 7 mps 750 mmHg 55%
    12:00 +9°C° 0 mm 7 mps 751 mmHg 48%
    13:00 +9°C° 0 mm 8 mps 751 mmHg 42%
    14:00 +9°C° 0 mm 8 mps 751 mmHg 36%
    15:00 +9°C° 0 mm 8 mps 751 mmHg 38%
    16:00 +9°C° 0 mm 7 mps 751 mmHg 40%
    17:00 +8°C° 0 mm 7 mps 752 mmHg 42%
    18:00 +7°C° 0 mm 6 mps 752 mmHg 46%
    19:00 +6°C° 0 mm 5 mps 752 mmHg 51%
    20:00 +5°C° 0 mm 4 mps 753 mmHg 56%
    21:00 +5°C° 0 mm 4 mps 753 mmHg 57%
    22:00 +4°C° 0 mm 4 mps 753 mmHg 59%
    23:00 +4°C° 0 mm 4 mps 754 mmHg 61%

    11 April, Saturday

    Time Temperature Precipitation Wind Pressure Humidity
    00:00 +3°C° 0 mm 4 mps 754 mmHg 63%
    01:00 +3°C° 0 mm 4 mps 754 mmHg 65%
    02:00 +1°C° 0 mm 4 mps 754 mmHg 67%
    03:00 +1°C° 0 mm 4 mps 754 mmHg 67%
    04:00 +1°C° 0 mm 4 mps 755 mmHg 67%
    05:00 0°C° 0 mm 4 mps 755 mmHg 68%
    06:00 +1°C° 0 mm 5 mps 755 mmHg 60%
    07:00 +2°C° 0 mm 6 mps 755 mmHg 53%
    08:00 +3°C° 0 mm 6 mps 756 mmHg 45%
    09:00 +4°C° 0 mm 6 mps 756 mmHg 42%
    10:00 +5°C° 0 mm 7 mps 756 mmHg 39%
    11:00 +6°C° 0 mm 7 mps 756 mmHg 36%
    12:00 +6°C° 0 mm 7 mps 756 mmHg 35%
    13:00 +8°C° 0 mm 6 mps 756 mmHg 34%
    14:00 +8°C° 0 mm 6 mps 756 mmHg 34%
    15:00 +7°C° 0 mm 6 mps 756 mmHg 35%
    16:00 +7°C° 0 mm 6 mps 756 mmHg 37%
    17:00 +7°C° 0 mm 5 mps 756 mmHg 38%
    18:00 +5°C° 0 mm 4 mps 757 mmHg 43%
    19:00 +4°C° 0 mm 3 mps 757 mmHg 48%
    20:00 +4°C° 0 mm 2 mps 758 mmHg 54%
    21:00 +3°C° 0 mm 2 mps 758 mmHg 55%
    22:00 +3°C° 0 mm 2 mps 758 mmHg 57%
    23:00 +2°C° 0 mm 2 mps 759 mmHg 58%

    12 April, Sunday

    Time Temperature Precipitation Wind Pressure Humidity
    00:00 +2°C° 0 mm 2 mps 759 mmHg 59%
    01:00 +1°C° 0 mm 2 mps 759 mmHg 60%
    02:00 +2°C° 0 mm 1 mps 759 mmHg 61%
    03:00 +2°C° 0 mm 1 mps 759 mmHg 61%
    04:00 +1°C° 0 mm 1 mps 759 mmHg 62%
    05:00 0°C° 0 mm 0 mps 759 mmHg 62%
    06:00 +1°C° 0 mm 0 mps 759 mmHg 57%
    07:00 +3°C° 0 mm 0 mps 759 mmHg 52%
    08:00 +4°C° 0 mm 0 mps 759 mmHg 47%
    09:00 +7°C° 0 mm 1 mps 759 mmHg 43%
    10:00 +7°C° 0 mm 2 mps 759 mmHg 40%
    11:00 +8°C° 0 mm 2 mps 758 mmHg 36%
    12:00 +9°C° 0 mm 3 mps 758 mmHg 35%
    13:00 +9°C° 0 mm 3 mps 757 mmHg 34%
    14:00 +10°C° 0 mm 3 mps 757 mmHg 32%
    15:00 +10°C° 0 mm 3 mps 756 mmHg 33%
    16:00 +11°C° 0 mm 3 mps 756 mmHg 34%
    17:00 +11°C° 0 mm 3 mps 755 mmHg 35%
    18:00 +10°C° 0 mm 3 mps 755 mmHg 39%
    19:00 +8°C° 0 mm 3 mps 755 mmHg 43%
    20:00 +7°C° 0 mm 3 mps 754 mmHg 47%
    21:00 +7°C° 0 mm 3 mps 754 mmHg 48%
    22:00 +5°C° 0 mm 3 mps 754 mmHg 50%
    23:00 +5°C° 0 mm 4 mps 754 mmHg 51%

    13 April, Monday

    Time Temperature Precipitation Wind Pressure Humidity
    00:00 +5°C° 0 mm 4 mps 753 mmHg 54%
    01:00 +5°C° 0 mm 4 mps 753 mmHg 57%
    02:00 +5°C° 0 mm 4 mps 753 mmHg 59%
    03:00 +4°C° 0 mm 4 mps 752 mmHg 63%
    04:00 +4°C° 0 mm 4 mps 752 mmHg 67%
    05:00 +4°C° 0 mm 4 mps 752 mmHg 71%
    06:00 +5°C° 0 mm 5 mps 752 mmHg 67%
    07:00 +7°C° 0 mm 5 mps 751 mmHg 63%
    08:00 +8°C° 0 mm 5 mps 751 mmHg 60%
    09:00 +10°C° 0 mm 6 mps 751 mmHg 56%
    10:00 +13°C° 0 mm 6 mps 750 mmHg 52%
    11:00 +14°C° 0 mm 6 mps 750 mmHg 48%
    12:00 +15°C° 0 mm 7 mps 750 mmHg 46%
    13:00 +16°C° 0 mm 7 mps 749 mmHg 43%
    14:00 +17°C° 0 mm 7 mps 749 mmHg 40%
    15:00 +17°C° 0 mm 6 mps 748 mmHg 43%
    16:00 +16°C° 0 mm 5 mps 748 mmHg 45%
    17:00 +16°C° 0 mm 5 mps 747 mmHg 47%
    18:00 +15°C° 0 mm 5 mps 747 mmHg 50%
    19:00 +14°C° 0 mm 5 mps 747 mmHg 52%
    20:00 +13°C° 0 mm 6 mps 747 mmHg 55%
    21:00 +13°C° 0 mm 6 mps 746 mmHg 54%
    22:00 +11°C° 0 mm 7 mps 746 mmHg 53%
    23:00 +11°C° 0 mm 7 mps 746 mmHg 53%
    Show more